星链-33947 (STARLINK-33947)

导读

STARLINK-33947是美国SpaceX公司星链星座的卫星,于2025年5月2日发射升空,属于全球低轨卫星互联网组网项目。星链计划旨在通过近地轨道部署大规模卫星星座,为全球提供高速互联网接入服务,填补地面网络覆盖盲区。目前SpaceX已累计发射数千颗星链卫星,持续推进星座组网建设,为全球用户提供天基通信服务。

基本信息
目录编号:
63787
目录名称:
STARLINK-33947
国际标识:
2025-091N
轨道中心:
EARTH
卫星名称:
星链-33947
卫星全名:
星链-33947 (STARLINK-33947)
卫星状态:
在轨 (已飞行490 天)
发射日期:
2025-05-02 UTC
国别 :
美国 (US)
星等 :
--
轨道信息
数据来源 国际轨道数据
星历时间: 2026-09-04T08:52:17+0800
7小时前
查看轨道信息
半长轴: 6861.15km
偏心率: 0.0001279
轨道倾角: 43.000°
近地点辐角 269.342°
升交点赤经 125.703°
平近点角 90.728°
近地点: 482.135km
远地点: 483.891km
周期: 94.266分钟
每日圈数: 15.275921
详细信息
固有亮度:
5
最大亮度:
2.5
卫星平台:
Starlink V1.0
覆盖范围:
全球
运营商:
太空探索技术公司
运营商所在国:
美国
制造商(研发单位):
太空探索技术公司
制造商所在国:
美国
使用方式:
暂无
卫星简介
Starlink 计划是 SpaceX 推出的全球卫星互联网项目,通过发射低轨道卫星,为全球尤其是偏远地区提供高速、低延迟的互联网服务。自 2019 年起,Starlink 已部署数千颗卫星,旨在缩小全球数字鸿沟,推动互联网普及。该项目还为军事、航空等行业提供通信支持,带来广泛经济效益。
2D轨道图
3D轨道图
轨道高度分析图
轨道倾角分析图
轨道综合分析图
查看轨道综合分析图
交会数据列表
事件ID 空间交会对象 最接近时刻(TCA) 交会距离 交会风险概率(CRP) 交会风险指数(CRI) 操作
CDM_260905-064703-945106-378721
SWARM B (39451)
2026-09-05T
06:47:33+0000
1.523 km
极远距离
6.062351E-6 低风险 0.51
CDM_260904-191705-962306-378721
2026-09-04T
19:17:03+0000
1.222 km
极远距离
2.859755E-6 低风险 0.44
CDM_260904-062405-619106-378722
HAWK-7A (56191)
2026-09-04T
06:24:17+0000
1.692 km
极远距离
2.805825E-6 低风险 0.44
CDM_260905-210504-326406-378721
2026-09-05T
21:05:03+0000
2.079 km
极远距离
1.9772E-6 低风险 0.41
CDM_260904-044905-619306-378722
HAWK-7B (56193)
2026-09-04T
04:49:27+0000
2.010 km
极远距离
1.770185E-6 低风险 0.4
CDM_260905-090803-945106-378721
SWARM B (39451)
2026-09-05T
09:08:54+0000
2.785 km
极远距离
1.410563E-6 低风险 0.38
CDM_260904-040205-619306-378721
HAWK-7B (56193)
2026-09-04T
04:02:20+0000
2.923 km
极远距离
9.043562E-7 极低风险 0.34
CDM_260903-121904-943306-378721
2026-09-03T
12:19:33+0000
2.220 km
极远距离
6.004192E-7 极低风险 0.31
CDM_260904-182905-962306-378721
2026-09-04T
18:29:58+0000
2.427 km
极远距离
5.126476E-7 极低风险 0.29